Location: New Frontier Mobile Home Park
(32.8448°N, 116.9675°W)
Time: 23:09:51
(UTC+00:00)

H-2A ROCKET BODY - Pass Details

Date: 14 July 2020
Orbit: 243 x 15322 km, 28.6° (Epoch: 05 August)

Event Time Altitude Azimuth Distance (km) Brightness Sun altitude
Rises 03:47:28 0° 264° (W) 2,333 5.4 -9.9°
Reaches altitude 10° 03:48:49 10° 256° (WSW) 1,761 4.5 -10.1°
Maximum altitude 03:52:18 46° 181° (S) 1,235 2.8 -10.7°
Enters shadow 04:02:24 13° 115° (ESE) 5,160 5.6 -12.5°
